This is the latest recevied weather packets stored in our database for station/object AA4XD. If no packets are shown the sender has not sent any weather packets the latest 10 day(s).
| Time | Temp. | Humidity | Pressure | Rain* | Wind** | Luminosity | Snow |
|---|---|---|---|---|---|---|---|
| 1777834422 | 25.56° C | 37% | 1016.8 hPa | 0 mm | - | 1040 W/m² | - |
| 1777834122 | 26.11° C | 38% | 1016.8 hPa | 0 mm | - | 957 W/m² | - |
| 1777833819 | 26.11° C | 39% | 1017.1 hPa | 0 mm | - | 1032 W/m² | - |
| 1777833514 | 26.11° C | 38% | 1017 hPa | 0 mm | - | 836 W/m² | - |
| 1777833212 | 25.56° C | 39% | 1017 hPa | 0 mm | - | 873 W/m² | - |
| 1777832909 | 25° C | 38% | 1017 hPa | 0 mm | - | 1058 W/m² | - |
| 1777832609 | 25.56° C | 38% | 1017.2 hPa | 0 mm | - | 672 W/m² | - |
| 1777832305 | 25.56° C | 38% | 1017.4 hPa | 0 mm | - | 1007 W/m² | - |
| 1777832002 | 26.11° C | 39% | 1017.4 hPa | 0 mm | - | 1042 W/m² | - |
| 1777831698 | 25.56° C | 40% | 1017.2 hPa | 0 mm | - | 425 W/m² | - |
| 1777831397 | 25.56° C | 38% | 1017.4 hPa | 0 mm | - | 1043 W/m² | - |
| 1777831093 | 25.56° C | 37% | 1017.5 hPa | 0 mm | - | 1030 W/m² | - |
| 1777830791 | 25° C | 39% | 1017.6 hPa | 0 mm | - | 1031 W/m² | - |
| 1777830486 | 25.56° C | 38% | 1017.5 hPa | 0 mm | - | 1028 W/m² | - |
| 1777830185 | 25.56° C | 38% | 1017.5 hPa | 0 mm | - | 1030 W/m² | - |
| 1777829880 | 25° C | 39% | 1017.7 hPa | 0 mm | - | 1031 W/m² | - |
| 1777829575 | 25° C | 41% | 1017.6 hPa | 0 mm | - | 1029 W/m² | - |
| 1777829273 | 24.44° C | 42% | 1017.9 hPa | 0 mm | - | 1032 W/m² | - |
| 1777828970 | 24.44° C | 39% | 1017.7 hPa | 0 mm | - | 1029 W/m² | - |
| 1777828666 | 25° C | 42% | 1017.8 hPa | 0 mm | - | 1028 W/m² | - |
| 1777828364 | 24.44° C | 40% | 1017.9 hPa | 0 mm | - | 1021 W/m² | - |
| 1777828061 | 24.44° C | 42% | 1017.9 hPa | 0 mm | - | 1019 W/m² | - |
| 1777827757 | 25° C | 40% | 1017.9 hPa | 0 mm | - | 1009 W/m² | - |
| 1777827454 | 24.44° C | 35% | 1018 hPa | 0 mm | - | 1008 W/m² | - |
| 1777827152 | 24.44° C | 43% | 1018.3 hPa | 0 mm | - | 1009 W/m² | - |
* Rain latest hour (hover to see other rain measurements)
** Current wind speed in m/s (hover to see current wind gust speed)